Location: St Paul
(33.4390°N, 83.7350°W)
Time: 10:27:58
(UTC-04:00)

CZ-4 R/B - Pass Details

Date: 06 October 2017
Orbit: 530 x 602 km, 97.8° (Epoch: 19 October)

Event Time Altitude Azimuth Distance (km) Brightness Sun altitude
Rises 20:00:36 0° 195° (SSW) 2,821 5.1 -10.9°
Reaches altitude 10° 20:03:04 10° 209° (SSW) 1,930 4.5 -11.4°
Maximum altitude 20:06:31 24° 264° (W) 1,241 4.1 -12.1°
Drops below altitude 10° 20:10:00 10° 319° (NW) 1,949 4.7 -12.9°
Sets 20:12:31 0° 333° (NNW) 2,854 5.4 -13.4°
